Tracking 34719 objects as of 12-Jul-2026
HD Live streaming from Space Station
objects crossing your sky now

QIANFAN-167

Track QIANFAN-167 now!
10-day predictions
QIANFAN-167 is classified as:


NORAD ID: 69384
Int'l Code: 2026-124C
Perigee: 905.3 km
Apogee: 921.0 km
Inclination: 89.0 °
Period: 103.1 minutes
Semi major axis: 7284 km
RCS: Unknown
Launch date: June 4, 2026
Source: People's Republic of China (PRC)
Launch site: Taiyaun Space Center, China (TSC)
Your satellite tracking list
Your tracking list is empty




NASA's NSSDC Master Catalog

Two Line Element Set (TLE):
1 69384U 26124C   26191.83107665 -.02076769  00000-0 -16201+1 0  9999
2 69384  88.9991 359.3800 0010776  78.4794 281.7592 13.96471570  5152
Source of the keplerian elements: AFSPC